| time (UTC) | temp F | wind direction | speed knots | gust knots | rain 1hr in | rain 24hr in | rain mn in | humidity % | barometer mb |
| 20260503225517 | 79 | 341 | 2.6 | 7.0 | 0.00 | 0.00 | 0.00 | 43 | 1011.0 |
| 20260503224521 | 79 | 324 | 1.7 | 7.0 | 0.00 | 0.00 | 0.00 | 43 | 1011.1 |
| 20260503223538 | 79 | 8 | 3.5 | 11.3 | 0.00 | 0.00 | 0.00 | 43 | 1011.3 |
| 20260503222539 | 79 | 335 | 3.5 | 7.0 | 0.00 | 0.00 | 0.00 | 44 | 1011.4 |
| 20260503221518 | 79 | 299 | 2.6 | 13.0 | 0.00 | 0.00 | 0.00 | 45 | 1011.5 |
| 20260503220518 | 80 | 299 | 3.5 | 8.7 | 0.00 | 0.00 | 0.00 | 45 | 1011.6 |
| 20260503215517 | 80 | 317 | 4.3 | 8.7 | 0.00 | 0.00 | 0.00 | 44 | 1011.6 |
| 20260503214539 | 79 | 333 | 3.5 | 9.6 | 0.00 | 0.00 | 0.00 | 43 | 1011.7 |
| 20260503213539 | 80 | 319 | 2.6 | 6.1 | 0.00 | 0.00 | 0.00 | 43 | 1011.8 |
| 20260503212518 | 79 | 345 | 0.9 | 5.2 | 0.00 | 0.00 | 0.00 | 42 | 1011.9 |
| 20260503211519 | 78 | 311 | 4.3 | 9.6 | 0.00 | 0.00 | 0.00 | 43 | 1012.0 |
| 20260503210518 | 78 | 305 | 1.7 | 6.1 | 0.00 | 0.00 | 0.00 | 42 | 1012.1 |
| 20260503205519 | 78 | 329 | 3.5 | 8.7 | 0.00 | 0.00 | 0.00 | 42 | 1012.2 |
| 20260503204600 | 78 | 300 | 4.3 | 7.8 | 0.00 | 0.00 | 0.00 | 41 | 1012.3 |
| 20260503203516 | 78 | 358 | 2.6 | 7.0 | 0.00 | 0.00 | 0.00 | 42 | 1012.5 |
| 20260503202519 | 78 | 330 | 1.7 | 7.8 | 0.00 | 0.00 | 0.00 | 46 | 1012.5 |
| 20260503201520 | 77 | 334 | 1.7 | 7.0 | 0.00 | 0.00 | 0.00 | 47 | 1012.6 |
| 20260503200519 | 77 | 34 | 0.9 | 5.2 | 0.00 | 0.00 | 0.00 | 47 | 1012.7 |
| 20260503195517 | 77 | 171 | 1.7 | 6.1 | 0.00 | 0.00 | 0.00 | 48 | 1012.9 |
| 20260503194518 | 76 | 83 | 0.9 | 3.5 | 0.00 | 0.00 | 0.00 | 49 | 1013.0 |
| 20260503193519 | 75 | 87 | 0.9 | 7.0 | 0.00 | 0.00 | 0.00 | 49 | 1013.2 |
| 20260503192518 | 76 | 36 | 0.9 | 7.0 | 0.00 | 0.00 | 0.00 | 49 | 1013.3 |
| 20260503191519 | 75 | 67 | 0.9 | 5.2 | 0.00 | 0.00 | 0.00 | 48 | 1013.4 |
| 20260503190518 | 76 | 92 | 0.9 | 7.0 | 0.00 | 0.00 | 0.00 | 49 | 1013.5 |
| 20260503185518 | 75 | 349 | 0.0 | 5.2 | 0.00 | 0.00 | 0.00 | 51 | 1013.6 |
| 20260503184518 | 74 | 137 | 3.5 | 7.8 | 0.00 | 0.00 | 0.00 | 51 | 1013.6 |
| 20260503183518 | 74 | 110 | 2.6 | 8.7 | 0.00 | 0.00 | 0.00 | 53 | 1013.8 |
| 20260503182518 | 73 | 116 | 0.9 | 6.1 | 0.00 | 0.00 | 0.00 | 54 | 1013.8 |
| 20260503181519 | 73 | 107 | 1.7 | 6.1 | 0.00 | 0.00 | 0.00 | 54 | 1013.9 |
| 20260503180540 | 72 | 106 | 1.7 | 7.8 | 0.00 | 0.00 | 0.00 | 56 | 1013.9 |
| 20260503175518 | 72 | 106 | 0.9 | 6.1 | 0.00 | 0.00 | 0.00 | 58 | 1014.0 |
| 20260503174519 | 71 | 20 | 0.9 | 3.5 | 0.00 | 0.00 | 0.00 | 59 | 1014.1 |
| 20260503173518 | 70 | 33 | 2.6 | 7.8 | 0.00 | 0.00 | 0.00 | 60 | 1014.2 |
| 20260503172519 | 70 | 33 | 0.0 | 5.2 | 0.00 | 0.00 | 0.00 | 61 | 1014.2 |
| 20260503171522 | 69 | 22 | 0.0 | 2.6 | 0.00 | 0.00 | 0.00 | 62 | 1014.3 |
| 20260503170518 | 68 | 0.0 | 0.0 | 0.00 | 0.00 | 0.00 | 63 | 1014.3 | |
| 20260503150540 | 60 | 31 | 0.9 | 3.5 | 0.00 | 0.00 | 0.00 | 75 | 1014.6 |
| 20260503130518 | 55 | 0.0 | 0.0 | 0.00 | 0.00 | 0.00 | 82 | 1014.4 | |
| 20260503110539 | 57 | 0.0 | 0.0 | 0.00 | 0.00 | 0.00 | 74 | 1014.6 | |
| 20260503081519 | 60 | 20 | 0.0 | 2.6 | 0.00 | 0.00 | 0.00 | 63 | 1014.7 |
| 20260503080517 | 60 | 0.0 | 0.0 | 0.00 | 0.00 | 0.00 | 63 | 1014.7 | |
| 20260503072519 | 61 | 0.0 | 0.0 | 0.00 | 0.00 | 0.00 | 63 | 1014.6 | |
| 20260503071518 | 61 | 0.0 | 0.0 | 0.00 | 0.00 | 0.00 | 62 | 1014.6 | |
| 20260503070519 | 61 | 0.0 | 0.0 | 0.00 | 0.00 | 0.00 | 61 | 1014.6 | |
| 20260503054520 | 62 | 0.0 | 0.0 | 0.00 | 0.00 | 0.00 | 60 | 1014.4 | |
| 20260503053519 | 63 | 0.0 | 0.0 | 0.00 | 0.00 | 0.00 | 59 | 1014.5 | |
| 20260503052519 | 63 | 40 | 0.0 | 2.6 | 0.00 | 0.00 | 0.00 | 59 | 1014.5 |
| 20260503051518 | 63 | 0.0 | 0.0 | 0.00 | 0.00 | 0.00 | 60 | 1014.4 | |
| 20260503050520 | 63 | 0.0 | 1.7 | 0.00 | 0.00 | 0.00 | 59 | 1014.4 | |
| 20260503045520 | 63 | 36 | 0.9 | 2.6 | 0.00 | 0.00 | 0.00 | 59 | 1014.4 |
| 20260503044516 | 63 | 0.0 | 0.0 | 0.00 | 0.00 | 0.00 | 59 | 1014.4 | |
| 20260503043519 | 64 | 0.0 | 0.0 | 0.00 | 0.00 | 0.00 | 58 | 1014.3 | |
| 20260503042518 | 64 | 9 | 0.0 | 2.6 | 0.00 | 0.00 | 0.00 | 59 | 1014.2 |
| 20260503041519 | 64 | 0.0 | 0.0 | 0.00 | 0.00 | 0.00 | 61 | 1014.1 | |
| 20260503040518 | 65 | 9 | 0.0 | 2.6 | 0.00 | 0.00 | 0.00 | 59 | 1014.0 |
| 20260503035520 | 65 | 7 | 1.7 | 2.6 | 0.00 | 0.00 | 0.00 | 59 | 1013.8 |
| 20260503034518 | 65 | 0.0 | 0.0 | 0.00 | 0.00 | 0.00 | 60 | 1013.6 | |
| 20260503033519 | 66 | 0.0 | 0.0 | 0.00 | 0.00 | 0.00 | 60 | 1013.5 | |
| 20260503032518 | 67 | 10 | 0.9 | 5.2 | 0.00 | 0.00 | 0.00 | 59 | 1013.4 |
| 20260503031518 | 67 | 21 | 0.0 | 1.7 | 0.00 | 0.00 | 0.00 | 59 | 1013.3 |
| 20260503030539 | 68 | 36 | 0.9 | 6.1 | 0.00 | 0.00 | 0.00 | 58 | 1013.3 |
| 20260503025518 | 68 | 21 | 0.9 | 2.6 | 0.00 | 0.00 | 0.00 | 58 | 1013.2 |
| 20260503024519 | 69 | 11 | 0.0 | 3.5 | 0.00 | 0.00 | 0.00 | 57 | 1013.1 |
| 20260503022518 | 70 | 341 | 0.9 | 6.1 | 0.00 | 0.00 | 0.00 | 57 | 1013.1 |
| 20260503021518 | 70 | 24 | 1.7 | 7.0 | 0.00 | 0.00 | 0.00 | 57 | 1013.0 |
| 20260503020520 | 70 | 332 | 1.7 | 8.7 | 0.00 | 0.00 | 0.00 | 57 | 1013.1 |
| 20260503015518 | 70 | 8 | 0.0 | 3.5 | 0.00 | 0.00 | 0.00 | 57 | 1013.0 |
| 20260503014519 | 71 | 14 | 1.7 | 6.1 | 0.00 | 0.00 | 0.00 | 56 | 1013.1 |
| 20260503013518 | 71 | 350 | 0.9 | 5.2 | 0.00 | 0.00 | 0.00 | 56 | 1013.1 |
| 20260503012518 | 72 | 38 | 1.7 | 6.1 | 0.00 | 0.00 | 0.00 | 55 | 1013.1 |
| 20260503011519 | 72 | 326 | 0.9 | 7.0 | 0.00 | 0.00 | 0.00 | 55 | 1013.1 |
| 20260503010520 | 73 | 339 | 1.7 | 6.1 | 0.00 | 0.00 | 0.00 | 54 | 1013.1 |
| 20260503005519 | 73 | 330 | 2.6 | 8.7 | 0.00 | 0.00 | 0.00 | 54 | 1013.1 |
| 20260503004556 | 73 | 10 | 2.6 | 7.8 | 0.00 | 0.00 | 0.00 | 53 | 1013.2 |
| 20260503003518 | 73 | 337 | 1.7 | 6.1 | 0.00 | 0.00 | 0.00 | 52 | 1013.2 |
| 20260503002518 | 73 | 350 | 2.6 | 8.7 | 0.00 | 0.00 | 0.00 | 50 | 1013.3 |
| 20260503001519 | 73 | 315 | 0.9 | 7.0 | 0.00 | 0.00 | 0.00 | 50 | 1013.4 |
| 20260503000520 | 74 | 355 | 0.9 | 7.8 | 0.00 | 0.00 | 0.00 | 50 | 1013.5 |
| 20260502235519 | 74 | 312 | 0.9 | 5.2 | 0.00 | 0.00 | 0.00 | 50 | 1013.6 |
| 20260502234518 | 75 | 336 | 1.7 | 6.1 | 0.00 | 0.00 | 0.00 | 50 | 1013.7 |
| 20260502233518 | 75 | 13 | 6.1 | 11.3 | 0.00 | 0.00 | 0.00 | 50 | 1013.7 |
| 20260502232519 | 74 | 329 | 1.7 | 12.2 | 0.00 | 0.00 | 0.00 | 52 | 1013.8 |
| 20260502231518 | 74 | 338 | 3.5 | 7.8 | 0.00 | 0.00 | 0.00 | 52 | 1014.0 |
| 20260502230539 | 74 | 354 | 2.6 | 8.7 | 0.00 | 0.00 | 0.00 | 51 | 1014.1 |